{"data":{"norad_id":53256,"intl_designator":"2022-086Q","name":"STARLINK-4147","alt_names":[],"object_type":"PAYLOAD","status":"ACTIVE","operator":null,"country":"US","launch_date":"2022-07-24","launch_site_code":"AFETR","launch_vehicle":null,"mission":null,"orbit_class":"UNKNOWN","rcs_meters":null,"size_class":null,"mass_kg":null,"dimensions":null,"purposes":["comms"],"wikipedia_slug":null,"has_3d_model":false,"image_url":null,"decayed_at":null,"tle_current":{"epoch":"2026-05-24T16:08:05.855136Z","epoch_age_seconds":96589,"freshness":"FRESH","line1":"1 53256U 22086Q   26144.67228999 -.00003616  00000+0 -20938-3 0  9990","line2":"2 53256  53.2131 213.0195 0000991 108.1570 251.9531 15.08815897212531","mean_motion":15.08815897,"eccentricity":9.91e-5,"inclination_deg":53.2131,"raan_deg":213.0195,"arg_perigee_deg":108.157,"mean_anomaly_deg":251.9531,"bstar":-0.00020938,"rev_number":21253,"period_min":95.439079271578,"perigee_km":539.13149392565,"apogee_km":540.50263242097,"semimajor_km":6917.9540631733,"source":"CELESTRAK","updated_at":"2026-05-25T13:38:17.362928Z"}}}